User: anonymous   Login
Location: Fort Wayne
(41.1310°N, 85.1290°W)
Time: 21:50:19
(UTC-04:00)
Language:

Meteor 2-9 Rocket - Orbit

View from above orbital plane
View from above orbital plane
View from above satellite
View from above satellite

Ground track
Ground track

The orbit data is extracted from the following two-line orbital elements,

1 13719U 82116B   15146.36709582 -.00000017  00000-0 -14842-4 0  9999
2 13719 081.2555 017.8190 0071532 341.0277 144.5682 14.14542593673933
Epoch (UTC): 26 May 2015 08:48:37
Eccentricity: 0.0071532
inclination: 81.2555°
perigee height: 792 km
apogee height: 895 km
right ascension of ascending node: 17.8190°
argument of perigee: 341.0277°
revolutions per day: 14.14542593
mean anomaly at epoch: 144.5682°
orbit number at epoch: 67393

The dashed part of the orbit path shows where the satellite is in the earth's shadow,  

DLR